When you browse on this site, cookies collect data to enhance your experience and personalize the content and advertising you see.
Visit our Privacy Policy to learn more. By continuing to use the site, you agree to this use of cookies and data.
  • In Czech Republic
  • List of Countries
  • For 7 days
  • Water Temperature
  • Satellite Maps
  • Weather Map
  • Weather Widgets
  • user-avatar
    Login

    Hourly Weather Eisenstadt

    Today, 19 November, Monday

    Time Temperature Precipitation Wind Pressure Humidity
    00:00 -1°C° 0.2 mm 2 mps 722 mmHg 80%
    01:00 -1°C° 0 mm 2 mps 721 mmHg 83%
    02:00 -1°C° 0.2 mm 2 mps 721 mmHg 84%
    03:00 -2°C° 0.2 mm 2 mps 721 mmHg 86%
    04:00 -2°C° 0.2 mm 2 mps 721 mmHg 88%
    05:00 -2°C° 0.3 mm 2 mps 720 mmHg 89%
    06:00 -2°C° 0.3 mm 2 mps 720 mmHg 89%
    07:00 -2°C° 0 mm 2 mps 720 mmHg 89%
    08:00 -2°C° 0.3 mm 2 mps 720 mmHg 88%
    09:00 -1°C° 0.3 mm 2 mps 720 mmHg 87%
    10:00 -1°C° 0.3 mm 2 mps 721 mmHg 85%
    11:00 -1°C° 0.3 mm 2 mps 721 mmHg 85%
    12:00 +1°C° 0.3 mm 2 mps 721 mmHg 84%
    13:00 +2°C° 0 mm 1 mps 721 mmHg 83%
    14:00 +2°C° 0.1 mm 1 mps 721 mmHg 85%
    15:00 +2°C° 0.1 mm 1 mps 721 mmHg 87%
    16:00 +1°C° 0.1 mm 1 mps 721 mmHg 89%
    17:00 +1°C° 0 mm 1 mps 721 mmHg 90%
    18:00 +1°C° 0 mm 1 mps 721 mmHg 91%
    19:00 +1°C° 0 mm 1 mps 721 mmHg 93%
    20:00 +1°C° 0 mm 1 mps 721 mmHg 93%
    21:00 -1°C° 0 mm 2 mps 721 mmHg 92%
    22:00 -1°C° 0 mm 2 mps 721 mmHg 92%
    23:00 -1°C° 0.1 mm 2 mps 721 mmHg 92%

    Tomorrow, 20 November, Tuesday

    Time Temperature Precipitation Wind Pressure Humidity
    00:00 -1°C° 0.1 mm 2 mps 721 mmHg 92%
    01:00 -1°C° 0.1 mm 2 mps 720 mmHg 92%
    02:00 -1°C° 0.3 mm 2 mps 720 mmHg 92%
    03:00 -1°C° 0.3 mm 2 mps 720 mmHg 92%
    04:00 -1°C° 0.3 mm 2 mps 720 mmHg 92%
    05:00 -1°C° 0.4 mm 2 mps 719 mmHg 92%
    06:00 -1°C° 0.4 mm 3 mps 719 mmHg 92%
    07:00 -1°C° 0.4 mm 3 mps 719 mmHg 93%
    08:00 -1°C° 0.3 mm 3 mps 719 mmHg 92%
    09:00 0°C° 0.3 mm 3 mps 718 mmHg 92%
    10:00 +1°C° 0.3 mm 2 mps 718 mmHg 92%
    11:00 +1°C° 0.2 mm 2 mps 718 mmHg 92%
    12:00 +1°C° 0.2 mm 2 mps 718 mmHg 91%
    13:00 +2°C° 0.2 mm 2 mps 718 mmHg 91%
    14:00 +1°C° 0.1 mm 2 mps 718 mmHg 92%
    15:00 +1°C° 0.1 mm 2 mps 718 mmHg 93%
    16:00 +1°C° 0.1 mm 2 mps 718 mmHg 94%
    17:00 +1°C° 0 mm 2 mps 718 mmHg 95%
    18:00 +2°C° 0 mm 1 mps 718 mmHg 95%
    19:00 +2°C° 0 mm 1 mps 718 mmHg 96%
    20:00 +2°C° 0 mm 1 mps 719 mmHg 96%
    21:00 +2°C° 0 mm 1 mps 719 mmHg 96%
    22:00 +2°C° 0 mm 1 mps 719 mmHg 96%
    23:00 +2°C° 0 mm 1 mps 719 mmHg 96%

    Day after tomorrow, 21 November, Wednesday

    Time Temperature Precipitation Wind Pressure Humidity
    00:00 +2°C° 0 mm 1 mps 720 mmHg 96%
    01:00 +2°C° 0 mm 1 mps 720 mmHg 96%
    02:00 +2°C° 0 mm 1 mps 720 mmHg 97%
    03:00 +3°C° 0 mm 1 mps 720 mmHg 97%
    04:00 +3°C° 0 mm 1 mps 720 mmHg 97%
    05:00 +3°C° 0 mm 1 mps 720 mmHg 97%
    06:00 +3°C° 0 mm 1 mps 720 mmHg 97%
    07:00 +3°C° 0 mm 1 mps 721 mmHg 97%
    08:00 +4°C° 0 mm 1 mps 721 mmHg 96%
    09:00 +4°C° 0 mm 1 mps 721 mmHg 95%
    10:00 +5°C° 0 mm 1 mps 721 mmHg 94%
    11:00 +5°C° 0 mm 1 mps 721 mmHg 93%
    12:00 +5°C° 0 mm 1 mps 721 mmHg 92%
    13:00 +6°C° 0 mm 1 mps 721 mmHg 92%
    14:00 +6°C° 0 mm 1 mps 722 mmHg 93%
    15:00 +5°C° 0 mm 1 mps 722 mmHg 94%
    16:00 +5°C° 0 mm 1 mps 722 mmHg 95%
    17:00 +5°C° 0 mm 1 mps 722 mmHg 96%
    18:00 +5°C° 0 mm 1 mps 722 mmHg 96%
    19:00 +5°C° 0 mm 1 mps 723 mmHg 97%
    20:00 +5°C° 0 mm 1 mps 723 mmHg 97%
    21:00 +5°C° 0 mm 1 mps 723 mmHg 97%
    22:00 +5°C° 0 mm 1 mps 723 mmHg 97%
    23:00 +5°C° 0 mm 1 mps 723 mmHg 97%

    22 November, Thursday

    Time Temperature Precipitation Wind Pressure Humidity
    00:00 +5°C° 0 mm 1 mps 724 mmHg 97%
    01:00 +5°C° 0 mm 1 mps 724 mmHg 97%
    02:00 +5°C° 0 mm 1 mps 724 mmHg 97%
    03:00 +5°C° 0 mm 1 mps 724 mmHg 97%
    04:00 +5°C° 0 mm 1 mps 724 mmHg 97%
    05:00 +5°C° 0.1 mm 1 mps 724 mmHg 97%
    06:00 +5°C° 0.1 mm 1 mps 724 mmHg 97%
    07:00 +5°C° 0.1 mm 1 mps 724 mmHg 96%
    08:00 +5°C° 0.1 mm 1 mps 725 mmHg 95%
    09:00 +6°C° 0.1 mm 1 mps 725 mmHg 94%
    10:00 +6°C° 0.1 mm 1 mps 725 mmHg 93%
    11:00 +5°C° 0 mm 2 mps 725 mmHg 92%
    12:00 +6°C° 0 mm 2 mps 725 mmHg 91%
    13:00 +6°C° 0 mm 2 mps 725 mmHg 89%
    14:00 +6°C° 0 mm 2 mps 725 mmHg 91%
    15:00 +6°C° 0 mm 1 mps 726 mmHg 92%
    16:00 +6°C° 0 mm 1 mps 726 mmHg 93%
    17:00 +6°C° 0 mm 1 mps 726 mmHg 94%
    18:00 +6°C° 0 mm 1 mps 726 mmHg 94%
    19:00 +6°C° 0 mm 1 mps 726 mmHg 95%
    20:00 +5°C° 0 mm 1 mps 727 mmHg 95%
    21:00 +5°C° 0 mm 1 mps 727 mmHg 95%
    22:00 +5°C° 0 mm 1 mps 727 mmHg 95%
    23:00 +5°C° 0 mm 1 mps 727 mmHg 95%

    23 November, Friday

    Time Temperature Precipitation Wind Pressure Humidity
    00:00 +5°C° 0 mm 1 mps 728 mmHg 96%
    01:00 +5°C° 0 mm 1 mps 728 mmHg 96%
    02:00 +5°C° 0 mm 1 mps 728 mmHg 95%
    03:00 +5°C° 0 mm 1 mps 728 mmHg 95%
    04:00 +4°C° 0 mm 1 mps 728 mmHg 95%
    05:00 +4°C° 0 mm 1 mps 728 mmHg 95%
    06:00 +4°C° 0 mm 1 mps 728 mmHg 95%
    07:00 +4°C° 0 mm 1 mps 729 mmHg 95%
    08:00 +5°C° 0 mm 1 mps 729 mmHg 93%
    09:00 +6°C° 0 mm 1 mps 729 mmHg 90%
    10:00 +6°C° 0 mm 2 mps 729 mmHg 88%
    11:00 +6°C° 0 mm 2 mps 729 mmHg 87%
    12:00 +6°C° 0 mm 2 mps 729 mmHg 85%
    13:00 +7°C° 0 mm 2 mps 729 mmHg 83%
    14:00 +6°C° 0 mm 2 mps 729 mmHg 85%
    15:00 +6°C° 0 mm 2 mps 729 mmHg 87%
    16:00 +5°C° 0 mm 2 mps 728 mmHg 90%
    17:00 +5°C° 0 mm 2 mps 728 mmHg 91%
    18:00 +5°C° 0 mm 2 mps 728 mmHg 93%
    19:00 +3°C° 0 mm 3 mps 728 mmHg 95%
    20:00 +3°C° 0 mm 3 mps 728 mmHg 94%
    21:00 +3°C° 0 mm 3 mps 728 mmHg 94%
    22:00 +3°C° 0 mm 3 mps 728 mmHg 94%
    23:00 +3°C° 0 mm 3 mps 728 mmHg 94%

    24 November, Saturday

    Time Temperature Precipitation Wind Pressure Humidity
    00:00 +3°C° 0 mm 3 mps 727 mmHg 94%
    01:00 +3°C° 0 mm 3 mps 727 mmHg 94%
    02:00 +3°C° 0 mm 3 mps 726 mmHg 94%
    03:00 +3°C° 0 mm 3 mps 726 mmHg 94%
    04:00 +1°C° 0 mm 4 mps 725 mmHg 94%
    05:00 +3°C° 0 mm 4 mps 725 mmHg 94%
    06:00 +3°C° 0 mm 4 mps 724 mmHg 94%
    07:00 +3°C° 0 mm 4 mps 724 mmHg 93%
    08:00 +3°C° 0 mm 4 mps 724 mmHg 92%
    09:00 +4°C° 0 mm 4 mps 723 mmHg 90%
    10:00 +4°C° 0 mm 4 mps 723 mmHg 89%
    11:00 +5°C° 0 mm 4 mps 722 mmHg 87%
    12:00 +5°C° 0 mm 4 mps 722 mmHg 86%
    13:00 +6°C° 0 mm 5 mps 721 mmHg 84%
    14:00 +6°C° 0 mm 5 mps 721 mmHg 85%
    15:00 +6°C° 0 mm 5 mps 720 mmHg 86%
    16:00 +6°C° 0 mm 5 mps 719 mmHg 87%
    17:00 +7°C° 0 mm 5 mps 719 mmHg 87%
    18:00 +7°C° 0 mm 5 mps 719 mmHg 88%
    19:00 +7°C° 0 mm 4 mps 719 mmHg 88%
    20:00 +6°C° 0.5 mm 4 mps 720 mmHg 89%
    21:00 +7°C° 0.5 mm 3 mps 720 mmHg 90%
    22:00 +7°C° 0.5 mm 2 mps 720 mmHg 91%
    23:00 +7°C° 1.1 mm 2 mps 720 mmHg 91%
    Show more